Find OTP-2

NORAD ID: 63235 Int'l Des: 2025-052 Owner: ROGUE Country: US operational
LEOCIRCULARRETROGRADESSO

Live Position

Loading 3D Globe...

About OTP-2

Description loading...

Upcoming Passes

Passes for default location (London). Set your location on the main map for personalized predictions.

Altitude History

Loading altitude history...

Two-Line Element Set

1 63235U 25052AB 26106.22657094 .00004486 00000-0 19276-3 0 9993
2 63235 97.3940 359.5968 0007386 34.9808 325.1913 15.23156937 60433
Epoch: Apr 16, 2026 • Age: 12 hours

Current Status

Altitude 525.3 km
Velocity 7.60 km/s
Sub-Earth Point -74.96°S, 81.79°W
Launch Date Mar 15, 2025
Age 1 years
Type other

Technical Details

Classification Payload
Mass 11.00 kg
Dry Mass 11.00 kg
Total Mass 11.00 kg
Length 0.50 m
Diameter 0.10 m
Span 0.50 m
Shape Box+ 2 pan
Manufacturer ROGUE
Bus Type Cubesat 8U
Phase Status In Orbit
Owner/State ROGUE/US

Most Searched